Content
SEND FEEDBACK

Daily
Averages
Monthly
Summary
United States of America

PETALUMA, CALIFORNIA


Home > North America > United States > California
Elevation: 1 foot     Latitude: 38 14N     Longitude: 122 38W

WEATHER
 
SELECT A DAY
Number of Records: 71,797;   Date Range: 4/19/11 - 8/26/14
 
SHARE

PRINT THIS DATA

[ ← Previous Day ]
WEATHER ALMANAC - FEBRUARY 5, 2013
[ Next Day → ]
[ °C ]   °F
Weather ElementAverageHighLow
Temperature48.2 °F57.2 °F (2:15 pm)41 °F (9:35 pm)
Dewpoint44.6 °F48.2 °F (2:55 pm)39.2 °F (11:15 pm)
Humidity87.9 %100 % (6:15 am)67 % (2:15 pm)
Barometer30.11 in30.17 in (10:15 pm)30.07 in (2:35 pm)
Wind Speed8.2 mph18.4 mph (2:55 pm)
Wind Gust26.5 mph (3:15 pm)
Weather ElementAverage
Visibility9.9 mi
Wind DirectionW (267.3 °)

Weather ElementTotal
Precipitation---
Heating Degree Days15.9 (Base 65)
Averaged from 66 records on February 5, 2013
WEATHER CONDITIONS BREAKOUT
WIND DIRECTION BREAKOUT
WEATHER BY HOUR - FEBRUARY 5, 2013
[ °C ]   °F
Local TimeTemperatureDewpointHumidityBarometerVisibilityWind DirectionWind SpeedGust SpeedPrecipitationEventsConditions
12:35 AM46.4 °F44.6 °F93 %30.13 in10.0 miWest (280°)10.4 mphOvercast
12:55 AM46.4 °F44.6 °F93 %30.13 in10.0 miNNW (330°)4.6 mphOvercast
1:15 AM46.4 °F44.6 °F93 %30.12 in10.0 miNW (310°)5.8 mphOvercast
1:35 AM46.4 °F44.6 °F93 %30.12 in10.0 miNW (310°)4.6 mphOvercast
1:55 AM46.4 °F44.6 °F93 %30.12 in10.0 miWNW (300°)4.6 mphOvercast
2:15 AM46.4 °F44.6 °F93 %30.12 in10.0 miCalmOvercast
2:35 AM46.4 °F44.6 °F93 %30.11 in10.0 miNW (310°)4.6 mphOvercast
2:55 AM46.4 °F44.6 °F93 %30.10 in10.0 miWest (260°)5.8 mphOvercast
3:15 AM46.4 °F42.8 °F87 %30.10 in10.0 miWest (270°)5.8 mphOvercast
3:35 AM46.4 °F42.8 °F87 %30.10 in10.0 miWest (270°)4.6 mphOvercast
3:55 AM46.4 °F42.8 °F87 %30.10 in10.0 miWNW (290°)3.5 mphOvercast
4:15 AM46.4 °F42.8 °F87 %30.10 in10.0 miWSW (250°)8.1 mphOvercast
4:35 AM46.4 °F41.0 °F81 %30.09 in10.0 miWest (270°)5.8 mphOvercast
4:55 AM46.4 °F42.8 °F87 %30.09 in10.0 miWNW (300°)4.6 mphOvercast
5:15 AM46.4 °F44.6 °F93 %30.09 in10.0 miNW (320°)3.5 mphOvercast
5:35 AM46.4 °F44.6 °F93 %30.09 in10.0 miNW (320°)3.5 mphOvercast
5:55 AM46.4 °F42.8 °F87 %30.09 in10.0 miCalmOvercast
6:15 AM44.6 °F44.6 °F100 %30.09 in10.0 miNNW (340°)5.8 mphOvercast
6:35 AM44.6 °F42.8 °F93 %30.09 in10.0 miCalmOvercast
6:55 AM44.6 °F42.8 °F93 %30.09 in10.0 miNorth (350°)5.8 mphOvercast
7:15 AM44.6 °F42.8 °F93 %30.10 in10.0 miNNW (330°)5.8 mphOvercast
8:15 AM46.4 °F44.6 °F93 %30.12 in10.0 miWNW (290°)4.6 mphOvercast
8:55 AM46.4 °F44.6 °F93 %30.13 in10.0 miWNW (290°)8.1 mphOvercast
9:15 AM46.4 °F44.6 °F93 %30.12 in10.0 miWest (280°)6.9 mphOvercast
9:35 AM48.2 °F44.6 °F87 %30.12 in10.0 miWNW (290°)5.8 mphOvercast
9:55 AM48.2 °F44.6 °F87 %30.13 in10.0 miWNW (300°)5.8 mphOvercast
10:15 AM48.2 °F44.6 °F87 %30.13 in10.0 miNNW (330°)5.8 mphOvercast
10:35 AM50.0 °F44.6 °F82 %30.13 in10.0 miNW (310°)4.6 mphOvercast
10:55 AM50.0 °F44.6 °F82 %30.13 in10.0 miWest (280°)6.9 mphOvercast
11:15 AM50.0 °F44.6 °F82 %30.13 in10.0 miWNW (290°)5.8 mphOvercast
11:35 AM50.0 °F44.6 °F82 %30.13 in10.0 miWNW (290°)8.1 mphOvercast
11:55 AM51.8 °F46.4 °F82 %30.12 in10.0 miWest (260°)9.2 mphOvercast
12:15 PM53.6 °F46.4 °F77 %30.11 in10.0 miWest (270°)8.1 mph16.1 mphOvercast
12:35 PM55.4 °F46.4 °F72 %30.10 in10.0 miWest (280°)10.4 mphOvercast
12:55 PM55.4 °F46.4 °F72 %30.09 in10.0 miWest (280°)11.5 mph18.4 mphOvercast
1:15 PM55.4 °F46.4 °F72 %30.09 in10.0 miWest (260°)16.1 mphOvercast
1:35 PM55.4 °F46.4 °F72 %30.08 in10.0 miWest (270°)16.1 mph23.0 mphOvercast
1:55 PM55.4 °F46.4 °F72 %30.08 in10.0 miWSW (250°)16.1 mph23.0 mphMostly Cloudy
2:15 PM57.2 °F46.4 °F67 %30.08 in10.0 miWest (260°)15.0 mph20.7 mphMostly Cloudy
2:35 PM55.4 °F46.4 °F72 %30.07 in10.0 miWest (270°)16.1 mph20.7 mphScattered Clouds
2:55 PM57.2 °F48.2 °F72 %30.07 in10.0 miWest (270°)18.4 mph21.9 mphScattered Clouds
3:15 PM57.2 °F48.2 °F72 %30.08 in10.0 miWest (280°)17.3 mph26.5 mphMostly Cloudy
3:35 PM55.4 °F48.2 °F77 %30.08 in10.0 miWest (270°)17.3 mph21.9 mphMostly Cloudy
3:55 PM55.4 °F46.4 °F72 %30.08 in10.0 miWest (270°)17.3 mph25.3 mphClear
4:15 PM55.4 °F46.4 °F72 %30.08 in10.0 miWest (270°)15.0 mph24.2 mphClear
4:35 PM55.4 °F46.4 °F72 %30.09 in10.0 miWest (270°)17.3 mph21.9 mphClear
4:55 PM53.6 °F48.2 °F82 %30.09 in10.0 miWest (270°)15.0 mph21.9 mphClear
5:15 PM51.8 °F48.2 °F88 %30.10 in10.0 miWest (270°)11.5 mphClear
6:15 PM48.2 °F46.4 °F93 %30.11 in10.0 miWNW (300°)8.1 mphOvercast
6:35 PM48.2 °F46.4 °F93 %30.11 in10.0 miWest (270°)8.1 mphMostly Cloudy
6:55 PM46.4 °F46.4 °F100 %30.11 in10.0 miNorthPartly Cloudy
7:15 PM46.4 °F46.4 °F100 %30.12 in10.0 miWNW (300°)8.1 mphClear
7:35 PM44.6 °F44.6 °F100 %30.13 in10.0 miWNW (300°)5.8 mphMostly Cloudy
7:55 PM46.4 °F46.4 °F100 %30.13 in10.0 miNW (310°)5.8 mphMostly Cloudy
8:15 PM44.6 °F44.6 °F100 %30.13 in10.0 miWNW (290°)8.1 mphMostly Cloudy
8:35 PM46.4 °F46.4 °F100 %30.14 in10.0 miWest (280°)6.9 mphPartly Cloudy
8:55 PM44.6 °F44.6 °F100 %30.14 in10.0 miWest (270°)9.2 mphPartly Cloudy
9:15 PM44.6 °F44.6 °F100 %30.15 in6.0 miWNW (290°)5.8 mphClear
9:35 PM41.0 °F41.0 °F100 %30.15 in10.0 miWNW (290°)6.9 mphClear
9:55 PM41.0 °F41.0 °F100 %30.15 in10.0 miCalmClear
10:15 PM42.8 °F41.0 °F93 %30.17 in10.0 miWNW (290°)5.8 mphClear
10:35 PM41.0 °F41.0 °F100 %30.16 in10.0 miNNW (330°)4.6 mphClear
10:55 PM41.0 °F41.0 °F100 %30.17 in10.0 miWNW (290°)9.2 mphClear
11:15 PM41.0 °F39.2 °F93 %30.17 in10.0 miWNW (300°)11.5 mphClear
11:35 PM42.8 °F41.0 °F93 %30.17 in10.0 miWNW (300°)11.5 mphClear
11:55 PM42.8 °F41.0 °F93 %30.17 in10.0 miWNW (300°)8.1 mphClear
Hourly data recorded from KO69, located miles away from Petaluma, California







STORIES FROM OUR PARTNERS